NOAA 16 DEB, 41655

Orbit data source: Space-Track

NOAA 16 DEB, 41655 is space debris in SSO originally from a launch on Thu, 21 Sep 2000 UTC launched from the Air Force Western Test Range (AFWTR). Debris objects in space refer to the collection of defunct objects orbiting the Earth. Examples of debris include non-operational satellites, rocket bodies, and fragments generated from explosions, collisions, or faulty payload assembly.

Loading next visibility...
Identifier
41655, 2000-055NU
Orbit
SSO
Country
Flag of USUS
Related business
Manufacturer
Unknown
Mission
Spacecraft
Bus & Motor
Unknown
Mass
Unknown
Launch date (UTC)
2000-09-21 (25 years ago)
Launch vehicle
Unknown
Launch site
Air Force Western Test Range (AFWTR)
Object type
Payload
Rocket body
Debris
Shape & HBR
Unknown shape, 0.1 m
Radar Cross Section
Small (<0.1 m²)

Expand to show TLE details & history
Last TLE update: 1 day ago

TLE from 1 day ago
0 NOAA 16 DEB
1 41655U 00055NU  26033.50762896  .00005267  00000-0  18016-2 0  9996
2 41655  98.7190 135.9152 0019228 174.0002 186.1418 14.36601144508001
Epoch: 2026-02-02T12:10Z
TLE epoch observation values (Epoch: 2026-02-02T12:10:59.142Z)
Latitude
0.00005°
Longitude
-179.53315°
Altitude
786.355 km
Speed
7.453 km/s
True Right ascension
09h 03m 39s
True Declination
0° 00' 00"
Sunlit
Object was in full shadow at epoch
Visualization orbit readout
Latitude
Unknown
Longitude
Unknown
Altitude
Unknown
Speed
Unknown
Apparent Right ascension
Unknown
Apparent Declination
Unknown
Sunlit
N/A
Visualization observer readout
Local Sidereal Time
16:50:43
Azimuth
Unknown
Elevation
Unknown
Doppler factor
Unknown
Orbital elements
Apogee altitude
780.626 km
Perigee altitude
753.149 km
Semi-major axis
7,145.024 km
Eccentricity
0.00192
Inclination
98.719°
RAAN
135.9152°
Arg. of periapsis
174.0002°
True anomaly
186.11828°
Mean anomaly
186.1418°
Eccentric anomaly
186.13004°
Mean motion
3.59367 °/min
Orbital period
100.18 mins
BSTAR
0.0018016
Loading maneuver chart data...
Computing Atmospheric mass density...
Loading historical data...
Loading historical data...
Loading historical data...
Loading historical data...
Loading historical data...
Loading historical data...
Loading historical data...

Documentation

Showing up to 5 results
|